Fayetteville, AR

6:26 PM CDT on May 21, 2018 (GMT -0500)
Drake

Weather History for KFYV - August, 2014

Change the Weather History Date:

Tuesday, August 19, 2014

  Actual Average Record
Temperature  
Mean Temperature 81 °F 77 °F  
Max Temperature 92 °F 89 °F 101 °F (1954)
Min Temperature 70 °F 65 °F 50 °F (1976)
Cooling Degree Days 16 12  
Month to date cooling degree days 196 244  
Year to date cooling degree days 858 993  
Since 1 June cooling degree days 710 880  
Growing Degree Days 30 (Base 50)    
Moisture  
Dew Point 69 °F    
Average Humidity 69    
Maximum Humidity 93    
Minimum Humidity 44    
Precipitation  
Precipitation 0.00 in 0.10 in 1.78 in (2015)
Month to date precipitation 1.66 1.96  
Year to date precipitation 22.71 30.61  
Sea Level Pressure  
Sea Level Pressure 29.86 in    
Wind  
Wind Speed 8 mph (SSW)    
Max Wind Speed 14 mph    
Max Gust Speed 19 mph    
Visibility 10 miles    
Events      
T = Trace of Precipitation, MM = Missing Value Source: NWS Daily Summary

Daily Weather History Graph

Daily Weather History Graph

Search for Another Location

Airport or City:

Astronomy

Aug. 19, 2014 Rise Set
Actual Time 6:38 AM CDT 8:01 PM CDT
Civil Twilight 6:11 AM CDT 8:28 PM CDT
Nautical Twilight 5:39 AM CDT 9:00 PM CDT
Astronomical Twilight 5:05 AM CDT 9:34 PM CDT
Moon 1:34 AM CDT (8/19) 3:55 PM CDT (8/19)
Length of Visible Light 14h 17m
Length of Day
13h 23m
Waning Crescent, 29% of the Moon is Illuminated
Aug 19
Waning Crescent
Aug 25
New
Sep 2
First Quarter
Sep 8
Full
Sep 15
Last Quarter

Hourly Weather History & Observations

Time (CDT) Temp. Heat Index Dew Point Humidity Pressure Visibility Wind Dir Wind Speed Gust Speed Precip Events Conditions
12:53 AM 70.0 °F - 64.9 °F 84% 29.84 in 10.0 mi South 3.5 mph - N/A   Clear
1:53 AM 73.9 °F - 64.9 °F 73% 29.83 in 10.0 mi SW 4.6 mph - N/A   Clear
2:53 AM 73.0 °F - 66.9 °F 81% 29.82 in 10.0 mi South 8.1 mph - N/A   Clear
3:53 AM 73.4 °F - 68.0 °F 83% 29.88 in 10.0 mi South 8.1 mph - N/A   Clear
4:53 AM 73.0 °F - 68.0 °F 84% 29.85 in 10.0 mi SSW 6.9 mph - N/A   Clear
5:53 AM 73.9 °F - 69.1 °F 85% 29.86 in 10.0 mi SW 9.2 mph - N/A   Clear
6:53 AM 73.0 °F - 69.1 °F 87% 29.89 in 10.0 mi SW 4.6 mph - N/A   Clear
7:53 AM 73.9 °F - 71.1 °F 91% 29.91 in 10.0 mi SSW 5.8 mph - N/A   Clear
8:53 AM 75.9 °F - 71.1 °F 85% 29.90 in 10.0 mi SSW 9.2 mph - N/A   Clear
9:53 AM 82.0 °F 85.9 °F 70.0 °F 67% 29.88 in 10.0 mi SSW 12.7 mph - N/A   Clear
10:53 AM 84.9 °F 88.2 °F 68.0 °F 57% 29.87 in 10.0 mi SW 9.2 mph - N/A   Clear
11:53 AM 89.1 °F 92.1 °F 66.9 °F 48% 29.88 in 10.0 mi SW 12.7 mph - N/A   Clear
12:53 PM 90.0 °F 91.7 °F 64.9 °F 43% 29.88 in 10.0 mi West 11.5 mph 16.1 mph N/A   Clear
1:53 PM 91.0 °F 94.3 °F 66.9 °F 45% 29.87 in 10.0 mi West 9.2 mph - N/A   Clear
2:53 PM 91.0 °F 97.6 °F 71.1 °F 52% 29.86 in 10.0 mi SW 12.7 mph - N/A   Partly Cloudy
3:53 PM 91.0 °F 95.6 °F 69.1 °F 48% 29.85 in 10.0 mi SW 10.4 mph - N/A   Clear
4:53 PM 91.0 °F 94.3 °F 66.9 °F 45% 29.83 in 10.0 mi SW 8.1 mph - N/A   Clear
5:53 PM 90.0 °F 93.6 °F 68.0 °F 48% 29.82 in 10.0 mi SSW 9.2 mph - N/A   Clear
6:53 PM 88.0 °F 92.1 °F 69.1 °F 53% 29.82 in 10.0 mi SW 8.1 mph - N/A   Clear
7:53 PM 84.0 °F 89.6 °F 72.0 °F 67% 29.83 in 10.0 mi South 4.6 mph - N/A   Partly Cloudy
8:53 PM 81.0 °F 85.8 °F 73.0 °F 77% 29.85 in 10.0 mi Calm Calm - N/A   Clear
9:53 PM 79.0 °F - 73.0 °F 82% 29.87 in 10.0 mi SSE 4.6 mph - N/A   Clear
10:53 PM 78.1 °F - 72.0 °F 81% 29.88 in 10.0 mi Variable 3.5 mph - N/A   Clear
11:53 PM 78.1 °F - 73.0 °F 84% 29.88 in 10.0 mi South 10.4 mph - N/A   Clear